This demonstration page uses our WeatherBlox Daily Observations layout. Learn more.

Left ArrowRight Arrow

39.51506, -84.39828

Hourly Observations for April 24, 2017

Temp ( °F °C ) Dew Point ( °F °C ) Humidity (%) Winds ( mph kmh ) Pressure ( in mb ) Visibility ( mi km ) Precip ( " mm )
12:35 am 00:35 Clear 49 9.6 39 3.8 67 67 NNE 3 6 30.00 1016 10 16 0.00 0.00
12:55 am 00:55 Clear 49 9.6 41 4.8 72 72 Calm 30.00 1016 10 16 0.00 0.00
1:15 am 01:15 Clear 49 9.6 40 4.7 72 72 NNE 5 7 30.00 1016 10 16 0.00 0.00
1:35 am 01:35 Clear 49 9.6 37 2.9 63 63 NE 5 7 29.97 1015 10 16 0.00 0.00
1:55 am 01:55 Clear 49 9.6 36 2.1 60 60 ENE 5 7 29.97 1015 10 16 0.00 0.00
2:15 am 02:15 Clear 50 9.9 37 2.9 62 62 NNE 5 7 29.97 1015 10 16 0.00 0.00
2:35 am 02:35 Clear 49 9.6 38 3.4 66 66 N 3 6 29.97 1015 10 16 0.00 0.00
2:55 am 02:55 Clear 49 9.6 39 3.9 68 68 N 7 11 29.97 1015 10 16 0.00 0.00
3:15 am 03:15 Clear 49 9.6 37 2.5 62 62 N 5 7 29.97 1015 10 16 0.00 0.00
3:35 am 03:35 Clear 49 9.6 37 2.6 62 62 N 3 6 29.97 1015 10 16 0.00 0.00
3:55 am 03:55 Clear 49 9.6 38 3.5 66 66 NNW 5 7 29.97 1015 10 16 0.00 0.00
4:15 am 04:15 Clear 49 9.6 37 2.8 63 63 N 3 6 29.97 1015 10 16 0.00 0.00
4:35 am 04:35 Clear 49 9.3 38 3.3 66 66 N 3 6 29.97 1015 10 16 0.00 0.00
4:55 am 04:55 Clear 45 7.3 36 2.1 70 70 Calm 29.97 1015 10 16 0.00 0.00
5:15 am 05:15 Clear 44 6.5 36 2.1 74 74 N 7 11 29.94 1014 10 16 0.00 0.00
5:35 am 05:35 Clear 45 7.4 35 1.8 68 68 N 3 6 29.97 1015 10 16 0.00 0.00
5:55 am 05:55 Clear 44 6.9 35 1.7 70 70 N 3 6 29.97 1015 10 16 0.00 0.00
6:15 am 06:15 Clear 43 5.9 35 1.8 75 75 N 6 9 29.97 1015 10 16 0.00 0.00
6:35 am 06:35 Clear 44 6.8 34 1.3 68 68 N 5 7 29.97 1015 10 16 0.00 0.00
6:55 am 06:55 Sunny 44 6.5 37 2.5 76 76 NNE 3 6 29.97 1015 10 16 0.00 0.00
7:15 am 07:15 Sunny 43 6.1 35 1.9 75 75 N 5 7 29.97 1015 10 16 0.00 0.00
7:35 am 07:35 Sunny 45 7.3 37 2.7 73 73 N 5 7 29.97 1015 10 16 0.00 0.00
7:55 am 07:55 Sunny 50 9.8 36 2.2 59 59 N 6 9 29.97 1015 10 16 0.00 0.00
8:15 am 08:15 Sunny 55 12.5 38 3.3 54 54 NNE 9 15 29.97 1015 10 16 0.00 0.00
8:35 am 08:35 Sunny 55 12.5 37 2.8 52 52 NE 9 15 29.97 1015 10 16 0.00 0.00
8:55 am 08:55 Sunny 55 12.5 36 2.2 50 50 NNE 7 11 29.97 1015 10 16 0.00 0.00
9:15 am 09:15 Sunny 57 13.8 36 2.2 46 46 NNE 8 13 29.97 1015 10 16 0.00 0.00
9:35 am 09:35 Sunny 60 15.3 35 1.4 39 39 ENE 8 13 29.94 1014 10 16 0.00 0.00
9:55 am 09:55 Sunny 60 15.4 33 0.5 36 36 NE 10 17 29.94 1014 10 16 0.00 0.00
10:15 am 10:15 Sunny 61 16 33 0.5 35 35 NE 9 15 29.94 1014 10 16 0.00 0.00
10:35 am 10:35 Sunny 63 17.2 33 0.5 33 33 NE 8 13 29.91 1013 10 16 0.00 0.00
10:55 am 10:55 Sunny 64 18 33 0.5 31 31 NE 10 17 29.91 1013 10 16 0.00 0.00
11:15 am 11:15 Sunny 67 19.5 34 1.2 30 30 ENE 10 17 29.91 1013 10 16 0.00 0.00
11:35 am 11:35 Sunny 68 20.2 37 2.9 32 32 NE 10 17 29.91 1013 10 16 0.00 0.00
11:55 am 11:55 Sunny 69 20.8 39 3.9 33 33 ENE 9 15 29.91 1013 10 16 0.00 0.00
12:15 pm 12:15 Sunny 69 20.8 40 4.6 35 35 ENE 9 15 29.91 1013 10 16 0.00 0.00
12:35 pm 12:35 Sunny 69 20.8 40 4.7 35 35 ENE 13 20 29.91 1013 10 16 0.00 0.00
12:55 pm 12:55 Sunny 71 21.8 43 6 36 36 ENE 12 19 29.88 1012 10 16 0.00 0.00
1:15 pm 13:15 Sunny 72 22.4 43 6.1 35 35 NE 9 15 29.88 1012 10 16 0.00 0.00
1:35 pm 13:35 Sunny 74 23.6 45 7.2 35 35 ENE 14 22 29.88 1012 10 16 0.00 0.00
1:55 pm 13:55 Sunny 74 23.6 44 6.7 34 34 NE 13 20 29.85 1011 10 16 0.00 0.00
2:15 pm 14:15 Sunny 74 23.6 44 6.6 34 34 ENE 12 19 29.85 1011 10 16 0.00 0.00
2:35 pm 14:35 Sunny 74 23.6 43 6.1 32 32 E 18 30 29.85 1011 10 16 0.00 0.00
2:55 pm 14:55 Sunny 75 23.7 43 6.2 32 32 ENE 14 22 29.85 1011 10 16 0.00 0.00
3:15 pm 15:15 Sunny 77 25 45 7.1 32 32 E 14 22 29.85 1011 10 16 0.00 0.00
3:35 pm 15:35 Sunny 76 24.5 45 7.3 33 33 NE 14 22 29.83 1010 10 16 0.00 0.00
3:55 pm 15:55 Mostly Cloudy 74 23.6 46 7.7 36 36 E 14 22 29.83 1010 10 16 0.00 0.00
4:15 pm 16:15 Cloudy 74 23.6 45 7.4 35 35 ENE 15 24 29.83 1010 10 16 0.00 0.00
4:35 pm 16:35 Cloudy 74 23.6 47 8.3 38 38 E 10 17 29.83 1010 10 16 0.00 0.00
4:55 pm 16:55 Cloudy 74 23.6 48 8.8 39 39 ENE 17 28 29.83 1010 10 16 0.00 0.00
5:15 pm 17:15 Cloudy 74 23.6 47 8.1 37 37 E 16 26 29.83 1010 10 16 0.00 0.00
5:35 pm 17:35 Mostly Cloudy 74 23.6 47 8.6 38 38 E 16 26 29.83 1010 10 16 0.00 0.00
5:55 pm 17:55 Mostly Cloudy 74 23.6 48 8.8 39 39 E 14 22 29.83 1010 10 16 0.00 0.00
6:15 pm 18:15 Mostly Cloudy 74 23.6 49 9.3 40 40 ENE 13 20 29.83 1010 10 16 0.00 0.00
6:35 pm 18:35 Cloudy 73 22.7 48 8.9 41 41 E 13 20 29.83 1010 10 16 0.00 0.00
6:55 pm 18:55 Cloudy 69 20.8 46 7.6 43 43 E 10 17 29.83 1010 10 16 0.00 0.00
7:15 pm 19:15 Cloudy 69 20.8 46 7.7 43 43 E 10 17 29.83 1010 10 16 0.00 0.00
7:35 pm 19:35 Cloudy 69 20.8 48 8.8 46 46 E 13 20 29.83 1010 10 16 0.00 0.00
7:55 pm 19:55 Cloudy 69 20.8 49 9.5 49 49 E 12 19 29.83 1010 10 16 0.00 0.00
8:15 pm 20:15 Cloudy 69 20.8 50 10 50 50 E 12 19 29.83 1010 10 16 0.00 0.00
8:35 pm 20:35 Cloudy 67 19.5 48 8.9 51 51 E 9 15 29.83 1010 10 16 0.00 0.00
8:55 pm 20:55 Mostly Cloudy 64 18 48 8.7 55 55 ENE 9 15 29.83 1010 10 16 0.00 0.00
9:15 pm 21:15 Partly Cloudy 64 18 48 8.8 55 55 E 10 17 29.83 1010 10 16 0.00 0.00
9:35 pm 21:35 Partly Cloudy 63 17 47 8.5 58 58 ENE 9 15 29.83 1010 10 16 0.00 0.00
9:55 pm 21:55 Clear 62 16.6 48 8.8 60 60 ENE 8 13 29.83 1010 10 16 0.00 0.00
10:15 pm 22:15 Clear 61 16.1 48 9 63 63 ENE 7 11 29.83 1010 10 16 0.00 0.00
10:35 pm 22:35 Mostly Cloudy 60 15.5 49 9.2 66 66 ENE 6 9 29.83 1010 10 16 0.00 0.00
10:55 pm 22:55 Mostly Cloudy 61 15.9 49 9.5 66 66 E 8 13 29.83 1010 10 16 0.00 0.00
11:15 pm 23:15 Cloudy 61 16 49 9.6 66 66 E 6 9 29.83 1010 10 16 0.00 0.00
11:35 pm 23:35 Cloudy 61 16 49 9.2 64 64 E 8 13 29.83 1010 10 16 0.00 0.00
11:55 pm 23:55 Mostly Cloudy 60 15.3 48 8.8 65 65 ESE 7 11 29.83 1010 10 16 0.00 0.00

Powered by AerisWeather